Back to catalog

STARLINK-11713

AliveCommunicationsVLEO
NORAD 64070·PAYLOAD·🇺🇸 United States

Launched May 21, 2025 from Cape Canaveral Space Force Station

Loading…

Next Passes (next 24 hours)

TLE

FreshSource: CelesTrak SupGP

Epoch: Sep 14, 2026, 22:39 UTC

1 64070C 25107G   26257.94423611  .00069373  00000+0  53890-3 0  2576
2 64070  43.0008  37.6299 0001874 254.9805  12.9309 15.70799948    17

Track STARLINK-11713 in real time with AllMySat

Download on the App Store